Weather History for KTMB - October, 2012

Change the Weather History Date:

Wednesday, October 31, 2012

  Actual Average Record
Temperature  
Mean Temperature 65 °F -  
Max Temperature 77 °F 84 °F 89 °F (1993)
Min Temperature 55 °F 64 °F 55 °F (2012)
Growing Degree Days 15 (Base 50)    
Moisture  
Dew Point 55 °F    
Average Humidity 72    
Maximum Humidity 90    
Minimum Humidity 48    
Precipitation  
Precipitation 0.00 in - - ()
Sea Level Pressure  
Sea Level Pressure 30.04 in    
Wind  
Wind Speed 2 mph (WNW)    
Max Wind Speed 12 mph    
Max Gust Speed -    
Visibility 10 miles    
Events      
Averages and records for this station are not official NWS values.
T = Trace of Precipitation, MM = Missing Value Source: NWS Daily Summary

Daily Weather History Graph

Daily Weather History Graph

Search for Another Location

Airport or City:

Trip Planner

Search our weather history database for the weather conditions in past years. The results will help you decide how hot, cold, wet, or windy it might be!

Date:

Astronomy

Oct. 31, 2012 Rise Set
Actual Time 7:29 AM EDT 6:40 PM EDT
Civil Twilight 7:05 AM EDT 7:04 PM EDT
Nautical Twilight 6:38 AM EDT 7:31 PM EDT
Astronomical Twilight 6:11 AM EDT 7:58 PM EDT
Moon 8:01 PM EDT (10/31) 8:59 AM EDT (10/31)
Length of Visible Light 11h 58m
Length of Day
11h 11m
Full, 97% of the Moon is Illuminated
Oct 31
Full
Nov 6
Last Quarter
Nov 13
New
Nov 20
First Quarter
Nov 28
Full

Hourly Weather History & Observations

Time (EDT) Temp. Dew Point Humidity Pressure Visibility Wind Dir Wind Speed Gust Speed Precip Events Conditions
12:53 AM 55.9 °F 52.0 °F 87% 30.03 in 10.0 mi Calm Calm - N/A   Clear
1:53 AM 55.9 °F 52.0 °F 87% 30.03 in 10.0 mi Calm Calm - N/A   Clear
2:53 AM 55.9 °F 53.1 °F 90% 30.03 in 10.0 mi Calm Calm - N/A   Clear
3:53 AM 55.0 °F 52.0 °F 89% 30.03 in 10.0 mi Calm Calm - N/A   Clear
4:53 AM 55.9 °F 52.0 °F 87% 30.03 in 10.0 mi South 3.5 mph - N/A   Clear
5:53 AM 55.9 °F 52.0 °F 87% 30.03 in 10.0 mi Calm Calm - N/A   Clear
6:53 AM 55.0 °F 52.0 °F 89% 30.03 in 10.0 mi Calm Calm - N/A   Clear
7:53 AM 55.0 °F 52.0 °F 89% 30.04 in 10.0 mi Calm Calm - N/A   Clear
8:53 AM 62.1 °F 55.9 °F 80% 30.06 in 10.0 mi Calm Calm - N/A   Clear
9:53 AM 68.0 °F 55.0 °F 63% 30.07 in 10.0 mi Variable 3.5 mph - N/A   Clear
10:53 AM 71.1 °F 53.1 °F 53% 30.08 in 10.0 mi NW 5.8 mph - N/A   Clear
11:53 AM 73.0 °F 54.0 °F 51% 30.07 in 10.0 mi NW 6.9 mph - N/A   Clear
12:53 PM 73.9 °F 55.0 °F 52% 30.05 in 10.0 mi Variable 5.8 mph - N/A   Clear
1:53 PM 75.0 °F 55.0 °F 50% 30.03 in 10.0 mi WNW 10.4 mph - 0.00 in   Clear
2:53 PM 75.2 °F 55.4 °F 50% 30.01 in 10.0 mi WNW 11.5 mph - N/A   Clear
3:53 PM 75.9 °F 55.0 °F 48% 30.00 in 10.0 mi NNW 6.9 mph - N/A   Scattered Clouds
4:53 PM 75.9 °F 55.0 °F 48% 29.99 in 10.0 mi Calm Calm - N/A   Clear
5:53 PM 75.0 °F 55.9 °F 51% 30.00 in 10.0 mi Calm Calm - N/A   Clear
6:53 PM 71.1 °F 55.0 °F 57% 30.01 in 10.0 mi Calm Calm - N/A   Partly Cloudy
7:53 PM 66.0 °F 57.0 °F 73% 30.02 in 10.0 mi Calm Calm - N/A   Clear
8:53 PM 62.6 °F 57.2 °F 82% 30.04 in 10.0 mi Calm Calm - N/A   Clear
9:53 PM 62.1 °F 57.9 °F 86% 30.06 in 10.0 mi WSW 4.6 mph - N/A   Clear
10:53 PM 62.1 °F 57.9 °F 86% 30.07 in 10.0 mi NW 9.2 mph - N/A   Clear
11:53 PM 63.0 °F 57.0 °F 81% 30.08 in 10.0 mi Calm Calm - N/A   Clear